Theta_e
303 303 304 304 304 305 305 305 304 303 302 304 307 308 308 308 309 308 308 308 307 306 306 306 305 306 306 306 306 306 305 306 309 311 311 311 312 312 311 310 308 306 308 310 312 314 312 313 314 315 316 316 316 317 318 319 317 316 317 316 313 313 314 317 318 318 318 319 320 319 319 319 318 322 327 330 327 324 326 327 330 340 341 342 345 346 351 352
303 303 303 303 304 305 305 304 304 304 302 302 305 307 308 308 309 309 308 308 307 307 306 306 305 306 306 305 306 304 304 308 310 310 311 311 310 309 308 307 306 305 307 311 313 313 313 313 314 315 315 314 317 317 318 319 317 317 317 315 314 316 317 319 319 319 319 319 320 320 319 319 319 321 327 331 326 322 329 330 332 342 343 345 350 350 352 352
304 304 303 303 303 304 304 304 304 304 304 303 303 305 307 308 308 309 308 308 308 307 306 306 306 306 305 305 304 302 306 310 310 310 312 314 310 308 307 306 306 305 306 311 313 314 314 314 314 314 313 315 316 315 317 318 317 317 317 315 315 318 319 319 319 319 318 318 319 320 319 319 319 322 328 330 326 322 329 331 335 343 343 346 350 351 351 351
305 304 304 304 303 303 303 304 304 304 305 304 303 304 306 307 307 308 309 308 308 307 307 306 306 306 306 305 302 303 309 310 310 312 312 313 311 310 309 306 305 304 306 310 312 313 314 314 315 314 313 314 315 316 318 317 317 317 316 316 317 319 319 319 319 318 318 317 318 319 319 319 322 328 331 331 325 322 328 332 336 339 340 346 349 350 351 351
305 305 304 304 304 304 303 303 303 304 304 305 304 303 304 306 307 307 308 309 308 307 307 306 305 306 305 303 302 305 310 308 310 314 309 308 308 308 309 309 307 305 307 309 311 312 313 315 315 314 314 314 315 316 316 317 317 317 316 317 317 319 319 319 319 317 317 317 318 319 318 320 326 332 332 330 327 329 332 332 333 334 339 346 348 348 350 350
304 304 304 304 304 303 303 303 303 304 304 305 305 304 303 305 307 307 308 309 308 307 307 307 306 305 303 301 303 307 309 308 310 312 308 306 306 306 310 313 308 307 310 310 310 311 312 315 314 313 313 313 315 315 316 318 317 316 317 317 317 318 319 319 318 317 317 317 318 318 318 319 321 328 333 330 332 338 338 335 334 336 341 346 348 348 348 348
304 304 304 304 304 303 303 303 303 303 304 304 305 305 303 303 306 307 307 308 308 308 307 307 306 304 302 302 306 308 308 309 309 309 308 306 306 306 309 314 311 310 313 310 310 311 311 314 313 313 313 313 314 315 316 317 317 317 316 317 318 317 319 319 318 318 317 316 318 318 320 318 318 324 331 331 336 341 340 341 341 340 342 346 348 347 347 348
304 304 304 304 304 304 303 303 303 303 303 304 304 305 304 303 304 306 307 308 308 308 307 306 306 304 301 304 308 307 307 308 309 309 308 306 307 307 306 314 319 315 314 311 310 311 311 313 313 313 312 313 314 314 316 316 316 317 316 317 318 318 319 318 318 317 317 317 318 319 318 319 319 321 331 336 339 343 342 342 342 341 341 344 347 347 348 347
303 303 303 304 303 304 303 303 303 303 303 304 304 304 304 303 302 305 306 307 308 308 308 307 306 304 302 306 308 306 307 308 308 308 308 307 307 308 305 313 323 318 313 312 311 311 311 312 313 313 313 313 314 314 315 315 315 316 316 317 317 319 319 318 318 317 317 318 317 319 317 319 320 322 339 347 344 342 343 343 343 345 345 344 346 346 347 346
303 303 303 303 303 303 303 304 303 303 303 303 304 304 304 303 302 303 305 306 307 308 308 307 306 304 304 308 307 307 307 307 308 307 307 307 306 308 306 311 320 319 314 312 311 311 311 312 314 314 313 313 314 314 315 315 315 317 317 316 317 318 319 318 317 317 318 318 318 319 316 322 325 324 340 350 349 342 343 346 346 346 346 345 345 345 346 346
302 302 303 303 303 303 303 303 304 304 304 303 304 304 304 304 303 302 303 305 306 307 308 307 305 304 306 307 306 307 307 306 308 307 306 306 306 307 307 308 315 318 316 312 311 311 311 313 315 314 314 313 314 314 315 315 316 317 317 316 316 316 319 318 317 318 317 317 318 318 319 327 330 329 340 348 349 346 345 347 345 344 346 347 346 346 346 347
302 302 303 303 303 303 303 303 303 303 304 304 303 303 303 304 303 302 302 304 306 307 307 307 305 305 307 306 305 307 307 307 307 306 305 306 306 307 307 308 310 313 316 314 311 311 311 312 314 314 313 313 313 314 315 316 316 317 316 316 316 316 318 317 318 318 317 318 319 318 320 326 334 341 344 345 346 348 347 344 342 343 346 347 346 346 345 345
302 303 303 303 303 303 303 303 303 303 303 303 303 303 303 303 302 301 302 304 305 307 308 307 306 306 307 306 306 307 307 307 306 306 305 305 306 307 307 308 308 309 313 315 313 310 310 312 313 314 313 313 314 314 315 316 316 316 316 316 315 315 316 317 318 317 317 318 318 318 314 321 340 343 340 340 342 348 348 344 344 347 348 346 344 342 342 342
302 302 302 302 302 303 303 303 303 303 303 303 303 303 303 302 301 301 302 303 305 306 307 307 306 307 307 306 307 307 307 307 307 306 305 305 306 307 308 308 308 308 310 314 314 311 310 311 313 314 314 313 313 314 314 314 315 315 315 315 315 312 312 317 318 317 318 316 319 319 310 324 347 342 339 340 339 346 348 348 347 348 347 343 341 340 339 338
302 302 302 302 302 303 303 303 303 303 303 303 303 303 303 302 300 300 301 303 304 305 306 307 306 307 307 306 307 307 307 307 307 306 304 305 307 308 309 308 309 309 310 313 314 312 310 311 312 313 313 313 313 314 313 314 315 315 312 311 312 311 312 318 317 316 318 316 320 317 313 332 348 342 340 342 339 339 344 347 347 345 344 340 338 338 336 334
302 302 302 302 302 302 302 303 303 303 303 303 303 303 302 302 300 300 300 302 303 305 306 307 306 307 307 307 307 307 306 306 306 305 304 305 307 308 309 309 309 310 312 314 314 312 310 311 312 312 313 313 312 314 313 312 312 314 312 308 309 310 311 315 316 317 318 317 320 318 320 337 345 341 342 345 341 337 339 342 342 341 339 337 337 338 337 336
302 301 302 302 302 302 302 302 302 303 303 303 303 302 302 302 301 300 300 301 303 305 306 306 306 306 307 307 307 306 306 306 306 306 305 306 307 308 309 309 310 311 313 313 312 311 310 311 311 311 312 312 313 313 312 309 308 311 311 310 310 311 311 312 314 317 318 318 321 319 323 336 341 342 344 345 341 337 338 337 339 340 337 337 338 339 340 340
302 301 302 302 302 302 302 302 302 303 303 303 303 302 302 301 300 301 301 302 304 306 306 306 306 306 307 306 306 307 307 307 306 306 306 306 306 307 309 310 310 312 312 311 310 310 310 310 310 311 312 312 313 313 310 309 310 310 309 309 310 311 312 312 314 317 317 318 319 320 330 340 342 342 344 343 340 338 338 337 340 341 339 339 340 340 341 341
302 302 302 302 302 301 302 302 302 302 302 302 302 302 301 301 302 302 303 304 305 305 305 307 305 306 307 306 307 307 307 306 305 305 306 306 306 307 309 310 311 312 311 309 309 310 310 310 310 310 311 312 313 312 312 313 313 313 311 310 310 309 311 314 317 317 318 319 319 322 333 343 344 343 344 340 339 340 338 338 339 341 341 341 341 341 342 341
302 302 302 302 302 301 301 302 302 302 302 302 302 303 302 302 303 302 303 304 304 304 304 306 305 305 305 306 307 306 306 306 305 305 305 305 306 307 308 309 311 311 310 308 309 310 309 310 310 310 311 312 313 313 313 314 316 315 314 312 312 311 311 316 319 317 318 317 318 324 333 341 344 342 343 340 339 341 339 338 339 341 341 341 341 342 342 340
302 302 302 302 301 301 301 301 302 301 301 301 302 302 302 303 302 302 303 303 303 304 303 303 305 305 305 306 307 307 306 306 305 305 306 306 307 307 308 310 311 310 309 309 309 310 310 310 310 311 312 313 313 314 313 314 316 316 314 311 312 312 312 318 318 317 319 317 318 326 331 337 342 341 343 341 339 341 341 341 340 340 340 340 341 341 340 337
302 302 303 302 302 301 301 301 301 301 301 301 302 302 302 302 302 303 303 302 303 304 303 303 304 305 306 306 307 307 306 305 305 305 306 307 307 307 308 310 311 310 309 309 309 309 310 310 311 312 313 313 314 314 314 314 315 316 315 311 310 312 315 318 319 318 318 317 321 327 329 333 339 340 342 341 340 340 341 341 340 339 339 339 341 340 339 338
302 302 302 302 302 301 301 301 300 300 301 302 303 303 302 302 302 303 303 302 302 303 302 302 303 303 304 305 307 307 306 306 305 305 306 307 307 307 309 310 311 311 309 309 310 309 310 310 312 313 312 313 313 313 314 314 316 316 315 311 308 313 315 313 317 321 319 320 327 328 330 336 339 338 340 340 339 340 340 340 339 339 339 339 340 339 338 339
301 301 302 302 302 301 300 300 300 300 301 302 302 302 302 302 302 303 303 302 302 302 302 303 303 303 304 305 306 306 305 306 305 305 306 307 307 308 309 310 310 311 310 310 310 310 310 311 312 313 312 313 313 313 314 314 314 315 316 313 310 314 316 315 319 322 320 324 330 330 331 337 340 339 341 340 339 340 340 340 340 339 339 338 339 338 338 339
300 301 302 301 302 301 299 299 300 301 301 301 301 301 302 302 303 303 303 302 301 301 302 303 303 303 304 305 306 306 306 305 305 306 307 307 307 308 309 309 310 311 310 309 310 311 312 313 313 313 312 312 313 313 314 314 313 313 316 315 314 317 319 319 321 319 316 317 325 330 326 331 338 339 342 342 341 341 339 340 341 340 339 338 338 339 338 338
299 301 302 301 302 300 299 300 301 301 301 302 301 301 301 302 303 302 302 301 300 300 301 302 303 303 304 305 305 305 305 306 306 307 307 307 308 309 310 310 311 311 311 310 311 312 312 313 312 313 312 312 313 312 313 315 312 310 314 316 317 319 318 318 318 316 312 313 324 328 320 326 337 336 337 341 341 341 341 341 341 341 340 339 339 340 338 338
300 301 301 301 301 299 300 302 301 301 301 301 301 301 301 302 302 302 302 300 300 300 301 302 303 304 304 305 305 305 306 307 306 306 307 307 308 309 309 310 311 311 311 311 310 311 312 312 312 312 312 311 312 312 314 316 312 310 314 316 316 317 317 318 319 316 314 316 325 327 319 324 335 336 335 340 340 340 341 339 340 341 340 340 340 339 338 338
301 301 301 301 299 298 300 302 302 302 302 301 300 301 301 301 302 303 302 300 301 301 302 302 303 304 304 305 305 305 306 306 305 305 306 307 308 309 309 310 311 311 312 311 310 311 312 312 312 312 312 311 312 313 315 315 312 313 316 316 317 318 319 321 320 317 316 317 318 323 319 317 326 334 336 339 340 340 341 338 338 340 339 339 339 338 338 337
301 300 300 299 298 298 300 301 302 302 302 301 300 301 302 302 302 302 301 301 303 302 302 303 303 303 304 304 304 305 306 306 305 305 306 307 308 309 310 310 311 311 312 311 310 312 312 312 312 312 311 311 312 314 314 313 313 315 316 316 318 320 321 322 320 315 313 314 314 319 319 313 320 331 333 337 338 338 341 339 339 340 339 339 339 338 336 334
301 300 299 298 298 300 301 301 302 302 301 301 300 301 303 302 301 301 302 304 304 303 302 303 303 303 304 304 305 304 305 305 306 305 305 306 308 309 310 311 311 312 312 311 311 312 312 312 312 311 311 312 312 313 313 313 314 316 315 315 317 320 321 320 318 315 312 313 313 316 320 315 317 326 332 337 338 336 336 338 340 340 338 338 338 336 334 333
301 299 298 298 300 302 302 302 302 301 301 301 301 301 303 302 301 302 304 305 305 305 304 304 303 303 304 304 305 304 304 306 306 305 304 306 308 309 310 311 311 312 312 311 311 312 312 312 311 311 312 312 312 312 313 313 314 316 315 314 312 313 316 316 314 314 312 312 313 316 320 317 314 323 332 334 334 332 330 334 339 339 338 338 337 334 333 333
301 300 298 299 300 301 302 303 302 302 302 301 301 301 302 302 302 303 304 305 307 306 305 304 303 303 304 304 305 304 304 306 306 305 305 306 308 309 310 312 311 312 312 310 310 312 312 311 311 311 311 312 312 311 311 313 314 316 314 311 310 310 314 315 312 312 311 311 314 315 318 317 314 322 332 331 329 329 328 331 336 338 338 337 335 333 333 334
301 300 299 299 300 301 303 302 302 302 303 302 302 302 302 303 303 304 303 306 307 306 305 305 304 304 304 304 305 304 304 306 306 305 306 307 308 309 310 312 311 312 313 311 309 310 312 312 311 310 311 311 312 310 309 310 312 314 312 310 310 311 315 316 313 312 313 313 314 315 316 316 315 319 327 330 329 328 328 332 334 336 338 337 334 333 332 333
300 300 301 301 301 302 302 301 301 302 303 303 303 303 303 303 304 304 305 306 306 305 305 305 305 304 304 305 304 304 305 306 306 306 306 307 308 309 309 311 312 313 314 312 310 311 313 312 310 309 310 311 312 311 311 311 312 313 314 313 311 310 313 314 312 312 314 313 313 314 314 313 314 321 328 329 328 327 328 333 334 333 336 336 333 332 331 332
300 300 302 302 301 301 302 301 302 302 303 303 303 303 304 304 304 304 305 306 305 305 304 305 306 304 304 305 304 304 306 307 307 306 306 307 308 309 309 311 312 313 314 312 312 312 312 311 311 311 311 311 312 312 313 312 310 312 315 313 311 311 312 311 312 313 312 311 311 311 313 317 321 328 332 328 327 329 329 333 335 333 334 335 333 332 331 331
301 302 303 303 302 301 301 301 302 302 303 303 303 303 304 303 304 304 305 305 304 305 304 305 307 304 304 304 303 304 306 307 307 307 307 307 309 309 309 311 312 313 313 312 313 313 311 311 311 311 311 311 312 312 313 312 310 312 311 310 312 316 315 310 311 314 312 310 312 311 314 322 326 330 332 328 327 331 332 333 335 335 335 335 334 332 331 331
303 303 303 303 302 302 302 301 302 302 303 304 304 305 304 303 304 305 305 305 304 305 305 307 307 304 304 304 303 304 307 307 307 307 308 308 309 310 310 311 313 313 314 313 313 314 313 311 311 311 311 311 312 312 313 313 313 311 309 310 314 316 315 312 311 313 312 311 312 312 314 317 320 324 330 329 329 331 333 334 335 336 336 335 333 331 331 332
303 303 303 302 302 302 302 302 302 302 304 304 304 305 305 305 306 306 306 306 305 305 306 308 307 304 305 304 304 305 307 307 307 308 309 308 310 310 310 311 313 313 314 314 314 315 314 312 311 312 311 311 311 311 311 312 313 313 311 313 314 311 311 312 311 313 313 311 312 313 315 314 314 320 327 328 329 332 334 336 336 336 335 334 333 331 331 332
304 303 304 303 303 303 303 303 302 303 304 304 305 305 306 306 306 307 306 305 305 306 308 309 307 304 305 305 305 307 307 307 307 308 309 309 310 311 310 311 312 312 313 314 315 315 315 314 312 312 312 311 311 310 309 309 312 313 313 314 313 312 311 310 311 313 312 312 312 314 315 314 314 322 327 326 329 331 332 335 336 336 335 334 333 332 332 333
304 303 304 303 303 304 304 303 304 305 304 305 305 306 306 306 305 305 305 305 305 307 309 311 309 305 305 305 306 307 308 308 308 309 309 309 310 310 310 311 312 312 313 314 314 314 315 315 312 312 312 311 309 309 310 310 310 311 311 310 310 312 313 313 313 312 311 311 312 314 315 314 317 327 329 325 327 329 331 333 336 336 335 333 333 332 333 333
304 304 304 304 303 304 304 304 305 305 305 305 306 306 306 305 305 305 305 305 306 307 308 310 310 308 305 306 307 307 308 308 308 310 310 309 310 311 310 311 311 312 313 313 314 314 315 315 313 311 310 309 309 311 312 312 312 311 311 310 311 311 312 313 312 311 310 310 310 312 312 313 319 327 328 326 326 327 329 332 333 335 335 334 333 332 332 332
305 305 305 304 304 304 304 304 305 306 306 306 306 306 306 305 305 306 306 307 307 307 308 309 311 310 306 306 307 307 308 309 309 310 310 310 311 311 310 311 311 312 313 313 313 315 316 316 313 310 310 311 311 312 312 313 313 312 312 313 313 313 311 310 310 310 310 309 310 310 310 316 327 329 325 326 327 327 329 332 333 334 333 334 333 331 331 331
306 306 305 305 304 303 304 305 306 306 307 307 306 306 306 306 306 308 308 309 309 309 310 311 311 309 307 307 308 308 309 309 309 310 310 311 312 311 311 311 310 311 313 313 314 315 316 315 312 310 311 311 312 312 313 313 313 312 312 313 314 313 312 312 312 312 311 309 309 309 310 319 332 333 326 325 325 325 327 333 334 334 333 333 332 331 330 329
307 306 306 305 304 304 304 306 306 307 307 307 307 308 308 307 307 309 311 311 311 311 312 311 309 308 307 307 308 309 309 310 310 310 310 310 312 312 310 310 310 312 312 313 314 313 313 314 312 311 312 312 312 312 311 312 312 312 312 313 313 313 314 315 313 313 312 310 310 309 310 318 331 336 333 327 323 326 330 333 333 333 334 333 331 330 330 327
307 307 306 306 305 305 305 306 306 306 307 307 308 309 310 310 309 309 311 311 311 312 312 310 309 308 307 307 309 309 309 310 310 311 310 310 311 311 310 310 311 310 311 315 316 313 313 315 314 312 312 312 312 312 311 310 311 313 313 312 313 313 314 314 311 311 311 311 311 309 310 321 333 334 331 329 328 331 333 332 331 332 333 332 330 330 329 327
307 307 307 306 306 306 306 306 306 306 307 308 309 310 311 312 311 310 310 311 312 312 312 311 309 309 308 308 309 309 309 310 310 310 310 310 311 310 310 310 309 311 315 318 316 313 313 315 315 313 312 311 312 313 313 312 311 312 313 312 312 313 314 314 311 310 310 311 312 310 314 324 331 329 328 331 333 332 332 332 332 334 333 331 330 329 328 327
307 307 307 307 307 307 308 308 308 307 307 309 309 310 312 313 313 311 311 311 312 313 313 311 309 309 309 309 311 310 309 310 310 310 310 310 310 309 310 310 309 315 320 317 313 313 313 314 316 316 313 313 314 314 314 314 312 312 313 313 314 313 314 314 311 312 313 312 311 313 317 321 324 327 329 331 331 332 332 334 334 334 332 330 329 328 326 325
307 306 306 306 307 308 309 309 310 310 310 310 310 311 312 313 313 313 312 312 312 313 314 311 309 309 309 309 311 310 310 310 310 311 312 310 309 309 310 309 310 316 317 312 312 315 314 313 316 316 315 315 316 316 315 313 313 313 313 314 314 314 314 314 313 315 316 313 312 315 317 317 320 325 328 328 329 331 333 333 332 331 330 329 327 326 325 324
305 305 305 305 306 308 309 309 311 311 311 311 312 312 312 313 314 313 313 314 315 315 314 312 309 308 309 309 310 312 312 311 312 313 313 311 310 310 311 310 310 312 312 311 313 315 314 313 316 316 316 316 317 316 315 314 313 313 313 313 314 315 315 314 315 316 317 315 315 317 318 317 318 323 326 327 329 330 332 332 330 329 328 327 326 325 324 322
304 304 304 304 306 308 310 310 312 313 312 312 313 312 312 313 315 313 312 313 316 317 315 313 309 308 310 309 311 315 316 313 313 314 313 312 312 312 312 311 311 312 311 312 314 314 314 313 314 316 315 315 317 317 315 315 315 314 313 313 314 315 315 316 316 317 317 316 317 318 318 318 319 320 322 326 329 332 333 331 329 328 327 327 325 323 323 322
304 304 304 304 306 309 310 311 312 313 313 314 314 314 314 315 315 314 312 312 314 316 316 315 313 310 310 311 315 319 320 317 315 314 313 312 311 311 312 311 312 313 312 312 313 314 314 314 314 315 313 313 316 317 315 315 316 316 315 315 315 315 315 316 317 317 317 316 317 317 316 317 320 321 322 326 331 334 333 331 330 328 327 326 324 323 324 323
304 304 305 304 306 309 310 311 312 312 313 314 315 315 315 315 315 315 313 312 313 315 315 317 318 314 312 316 320 320 319 320 319 316 315 314 312 311 311 310 311 312 312 312 313 314 314 314 314 314 312 312 315 316 316 316 316 315 316 317 317 316 317 317 317 318 318 317 316 315 315 318 321 322 325 329 333 334 333 330 329 328 327 325 324 324 324 323
Wind_Speed
15 15 15 14 14 14 14 14 13 13 13 13 13 13 13 13 13 12 11 11 12 13 14 14 16 16 17 19 19 20 22 22 20 18 17 18 17 14 14 13 11 11 10 8 11 10 11 14 14 15 13 11 9 9 10 10 7 7 7 8 9 10 11 11 12 8 6 7 7 6 2 3 7 3 4 5 8 11 6 8 7 9 13 15 16 25 29 27
15 15 15 15 15 14 14 14 14 13 13 13 14 14 13 14 14 14 12 11 12 13 14 15 15 16 17 19 20 20 22 21 21 21 20 21 20 17 17 17 13 10 11 11 12 14 13 13 15 15 12 9 9 10 11 10 9 9 7 9 10 10 12 10 9 5 4 6 4 5 1 3 6 2 3 6 9 12 9 11 11 13 17 17 18 23 26 26
15 15 15 15 15 15 14 14 14 14 14 13 13 14 14 13 13 14 14 11 10 12 13 14 14 16 17 19 20 19 20 21 20 16 11 13 17 20 21 20 19 14 13 14 13 14 14 13 15 14 11 10 9 11 12 10 10 10 9 9 9 12 12 5 4 4 2 4 0 3 1 3 6 4 5 7 9 12 11 11 12 13 14 16 18 21 22 24
16 16 15 15 15 15 15 15 14 14 14 14 14 14 14 14 14 13 14 13 10 10 13 13 14 15 16 19 19 18 18 17 11 1 6 6 8 10 15 17 20 18 16 16 14 13 15 14 14 14 12 10 10 12 12 11 9 9 10 11 10 14 11 3 3 5 2 3 3 1 3 5 4 4 6 8 10 11 12 13 13 14 18 18 18 19 20 22
17 17 16 16 15 15 15 15 15 14 14 14 14 14 14 14 14 13 13 14 11 9 11 13 13 15 17 18 18 17 15 8 2 10 9 6 6 2 3 9 17 20 18 17 15 14 15 14 12 13 12 11 12 11 12 14 10 9 12 15 15 12 7 3 4 5 3 3 5 4 5 4 2 4 7 10 10 4 5 12 16 16 19 20 19 18 19 20
17 17 17 16 16 16 15 15 15 15 15 15 15 14 14 14 13 14 13 13 12 10 10 12 12 14 17 17 17 16 12 4 4 7 3 5 6 4 2 2 11 18 18 18 17 15 14 14 13 12 11 12 15 14 12 15 13 10 12 15 17 12 6 5 4 4 4 6 8 7 4 3 5 7 7 11 7 5 4 4 12 15 20 19 19 17 17 19
16 17 17 17 17 17 16 15 15 15 15 15 15 15 15 14 13 14 13 13 13 10 9 11 12 14 16 17 17 15 11 10 6 2 1 4 1 6 5 4 9 16 19 20 19 16 14 16 16 13 12 13 15 16 14 15 16 13 12 13 16 14 8 6 4 5 6 8 8 5 4 5 8 7 7 10 5 9 2 6 10 15 20 18 18 17 16 17
16 16 16 17 17 17 16 16 15 15 15 15 15 15 15 15 13 13 13 13 12 11 9 10 11 12 14 15 14 10 10 15 12 1 1 6 5 8 8 6 11 17 20 23 20 18 16 17 18 13 13 14 14 15 14 14 16 15 15 13 12 12 10 9 6 6 8 8 7 7 8 8 9 8 6 5 6 8 5 11 12 14 19 17 16 16 16 16
16 16 16 16 16 17 17 16 16 15 15 15 15 15 15 15 14 13 13 13 12 12 10 9 11 11 11 12 11 9 8 8 7 3 3 5 8 9 10 7 13 17 20 24 23 21 16 15 18 16 14 14 14 15 14 14 13 14 17 15 10 9 10 11 10 10 9 8 8 10 12 10 10 8 2 3 3 7 8 13 15 15 17 16 15 15 15 15
16 16 16 16 16 16 16 17 16 16 15 15 15 14 14 14 14 13 13 13 12 12 10 9 10 10 11 13 11 9 3 1 0 2 4 7 11 10 11 8 10 16 20 22 23 23 17 15 16 15 13 13 14 14 14 15 10 9 15 18 14 9 10 10 11 13 10 10 10 11 13 10 9 11 5 3 1 4 10 14 16 15 15 15 15 14 14 15
17 16 16 16 16 16 16 16 17 16 16 15 15 14 14 14 14 13 12 13 12 13 10 9 9 10 14 14 12 9 2 1 4 7 10 12 11 12 11 9 8 14 19 20 23 24 21 19 15 12 11 10 12 14 14 15 10 6 9 16 17 11 9 11 12 12 10 10 12 12 12 9 9 9 5 6 2 5 11 14 15 14 13 14 15 13 11 12
17 17 17 16 16 16 16 16 16 16 16 16 15 15 14 14 14 13 12 12 12 12 11 10 8 11 15 14 14 15 14 17 18 17 17 14 12 13 12 11 11 13 16 18 22 25 23 21 18 14 10 7 10 11 11 15 14 9 7 11 16 14 12 13 13 12 11 10 13 13 10 11 10 3 6 5 3 6 10 12 13 13 11 12 12 10 10 10
17 17 17 16 16 16 16 15 16 16 16 16 15 15 14 14 14 13 12 12 11 12 12 10 10 14 16 13 15 21 23 25 23 22 20 16 15 15 15 15 15 14 16 17 20 23 24 22 20 17 12 10 10 6 5 13 15 12 10 9 12 13 13 16 14 14 14 11 14 13 10 10 7 7 6 4 6 7 12 13 12 12 10 11 11 10 10 10
16 17 16 16 16 16 16 16 15 15 16 16 15 14 14 15 15 13 12 11 11 11 11 11 12 15 14 13 20 25 26 25 23 24 22 17 15 15 15 16 16 16 16 18 19 20 22 23 19 16 13 12 11 5 4 10 12 11 11 9 10 9 11 17 17 16 16 12 14 14 10 7 9 7 3 5 3 8 8 13 13 14 12 11 11 11 10 10
16 17 16 16 16 16 16 16 16 15 16 16 15 15 15 16 15 13 12 11 11 11 11 12 14 13 11 14 20 21 23 23 23 25 20 16 15 14 14 16 16 15 15 17 18 17 21 22 17 12 12 13 13 9 9 9 9 10 11 9 10 9 10 17 19 18 17 12 15 16 8 4 8 10 8 7 7 3 4 8 11 12 12 11 10 11 9 9
17 16 16 16 16 17 17 17 16 15 15 16 15 15 15 16 15 12 12 11 11 10 9 11 14 12 8 10 13 12 14 17 17 17 16 16 15 13 13 15 15 14 15 17 16 16 19 19 13 11 12 13 12 9 9 9 9 10 11 10 12 12 11 14 18 19 19 14 16 17 7 6 7 9 9 7 10 8 4 4 6 8 9 8 8 9 9 10
17 17 16 17 17 18 18 18 17 15 15 15 15 15 14 15 15 13 12 11 11 10 11 11 10 9 10 12 12 9 10 13 11 9 11 13 13 13 12 12 14 14 14 16 17 16 16 13 10 11 12 11 12 10 10 11 10 10 11 10 12 16 12 11 15 18 20 16 15 18 10 7 10 10 9 7 9 12 8 5 8 11 9 10 9 9 11 11
17 18 17 17 17 18 19 18 16 15 14 14 15 16 15 16 17 15 14 11 9 8 10 11 7 6 8 13 16 13 6 5 6 8 10 11 12 14 13 11 11 14 14 15 17 15 13 11 10 11 11 11 13 13 12 13 13 12 13 11 11 15 14 12 14 16 20 17 14 17 9 8 13 10 7 7 8 12 12 8 10 12 13 14 12 11 12 12
18 18 18 18 18 18 18 18 16 14 13 14 16 17 17 16 15 15 15 13 9 6 6 8 10 8 3 3 14 14 8 6 9 12 13 13 14 15 15 13 12 15 15 13 15 15 12 11 12 12 13 15 17 17 16 14 15 15 15 14 13 13 14 14 15 16 19 16 15 15 10 11 13 11 9 8 8 10 11 8 8 10 14 13 12 11 10 10
18 18 18 18 17 18 18 17 16 14 12 13 15 14 12 10 9 10 13 14 12 12 11 9 14 16 12 9 8 7 5 8 11 13 15 16 16 16 15 14 13 14 15 14 15 15 13 11 14 15 16 19 20 20 20 17 15 15 15 16 15 13 14 14 15 18 19 15 15 14 13 13 12 10 10 10 10 9 11 11 11 11 12 12 12 11 10 9
19 18 18 17 17 17 18 16 15 13 12 14 14 11 8 7 6 4 5 11 15 18 20 16 15 17 17 17 13 4 5 8 9 12 14 15 17 16 13 15 15 13 16 18 16 14 14 14 17 19 19 19 20 20 21 19 15 13 14 15 14 13 11 11 12 16 18 14 12 14 13 12 12 10 9 10 10 9 12 14 12 11 11 11 13 13 12 10
19 18 18 17 16 17 17 17 15 14 13 13 14 12 10 11 9 5 4 8 13 18 21 20 19 17 17 20 17 11 10 9 11 12 12 14 16 15 14 16 16 13 17 19 14 13 15 15 19 21 18 18 19 20 21 20 14 11 12 13 13 13 10 11 12 16 16 11 9 14 12 11 11 9 8 10 10 8 10 11 9 11 11 11 12 12 13 12
19 18 19 17 16 16 17 17 16 14 13 14 15 14 13 13 10 7 8 8 10 15 17 19 21 20 19 21 18 16 15 12 11 12 15 16 15 16 15 16 17 16 18 20 16 14 14 14 19 20 18 20 20 20 21 16 11 11 11 11 13 13 12 10 12 16 15 9 9 12 10 9 9 7 8 11 10 8 9 9 9 11 11 12 12 11 12 13
19 19 20 18 15 14 16 17 15 14 14 15 16 15 13 12 9 8 8 7 9 12 15 18 19 18 20 20 18 18 16 12 11 12 17 18 15 15 16 17 18 16 17 22 22 18 14 14 18 19 20 22 19 19 21 12 9 13 12 12 13 13 13 10 12 16 14 10 11 13 8 7 9 9 11 10 8 8 8 11 12 11 11 12 13 12 13 13
19 19 20 16 12 13 16 15 14 13 13 15 15 14 13 10 8 8 6 6 8 10 14 18 15 16 21 21 20 17 14 14 14 13 15 20 18 14 13 14 14 15 20 25 23 16 14 16 19 20 21 21 18 18 20 13 9 12 13 15 12 14 15 13 15 15 12 10 14 14 8 5 9 9 9 9 8 10 10 13 13 11 12 13 13 13 13 13
18 18 17 13 11 13 13 10 11 10 10 11 9 8 8 7 5 5 5 5 7 8 13 14 11 13 19 19 17 15 14 14 15 16 14 18 20 14 12 10 10 15 21 21 15 10 12 17 20 21 20 21 19 17 18 16 10 9 13 14 11 15 18 17 19 16 10 10 14 15 10 5 8 9 10 10 11 13 12 12 13 12 12 12 11 12 12 12
17 16 14 12 11 12 9 6 10 9 6 4 4 5 3 4 4 1 4 5 6 7 13 12 8 14 19 17 17 15 11 9 13 18 17 17 20 16 13 13 11 13 15 13 10 9 13 19 22 22 22 20 16 13 17 19 12 7 13 11 10 13 17 16 18 14 10 10 12 15 14 6 7 10 12 13 13 15 14 12 13 12 13 13 12 12 12 12
17 14 11 11 12 11 10 9 11 8 4 5 6 5 1 6 6 3 4 5 3 4 8 11 9 12 16 18 21 18 10 7 13 17 18 17 17 14 14 16 16 16 17 14 10 12 16 21 22 22 19 15 13 14 18 20 14 8 15 13 8 10 14 15 15 12 11 11 10 14 16 10 7 10 12 13 13 15 15 16 15 14 15 14 13 13 12 12
15 12 11 12 11 10 11 12 11 6 5 4 4 2 4 7 4 3 4 4 3 4 3 9 11 10 13 16 21 20 14 9 11 14 17 17 17 14 10 14 19 19 19 16 11 13 15 16 17 17 15 12 15 16 17 20 15 8 15 15 9 9 12 14 13 11 11 11 10 14 17 11 6 10 13 11 12 14 13 14 15 15 15 15 14 13 12 12
13 11 11 12 10 7 9 10 8 5 4 2 1 3 5 5 2 4 6 4 2 4 4 8 10 12 17 17 17 20 18 13 11 15 16 15 17 16 11 12 18 16 15 16 15 13 11 11 13 14 13 13 16 15 15 19 16 8 13 13 10 10 11 10 10 9 10 10 11 16 18 14 9 10 12 10 10 13 12 12 14 15 16 15 14 13 12 11
12 11 11 11 9 6 7 5 2 1 1 1 4 7 5 3 2 5 5 1 1 1 4 10 13 14 20 19 15 18 19 15 14 18 16 14 15 14 10 11 14 13 14 14 14 14 14 12 12 13 16 15 16 15 14 19 16 9 11 12 10 9 8 8 9 9 10 10 12 16 18 17 12 7 10 11 12 15 15 14 15 17 17 15 13 13 13 12
12 11 11 10 9 7 7 5 1 2 3 3 5 5 3 3 4 5 4 1 1 3 5 8 14 16 20 21 17 18 18 14 15 18 18 16 14 13 12 12 14 13 13 13 15 15 14 14 14 14 17 17 15 14 13 16 15 10 11 12 11 9 8 9 10 9 10 9 11 16 17 14 10 8 14 17 19 19 17 15 16 18 17 16 15 14 13 12
13 12 11 9 8 7 7 6 4 5 6 6 4 3 3 4 3 3 3 3 1 3 9 9 13 18 20 19 17 18 17 14 16 18 19 18 15 15 16 16 18 16 12 14 15 14 11 12 17 17 14 15 17 13 11 13 14 12 12 11 11 10 9 10 10 9 9 8 10 15 15 11 9 8 14 19 20 19 17 16 17 17 16 15 16 15 13 12
12 10 10 8 7 6 4 3 3 5 6 6 4 3 4 6 4 2 2 0 2 6 11 10 12 20 19 17 18 18 14 13 18 18 18 18 14 14 15 17 22 18 11 13 13 12 11 10 16 17 13 15 18 13 12 14 14 12 12 11 10 9 8 8 9 8 10 9 9 12 12 10 7 4 8 14 16 16 16 15 16 17 15 14 14 14 13 12
9 9 8 7 7 6 4 3 4 4 5 4 4 5 6 6 3 3 3 1 2 7 12 13 9 18 17 16 19 19 13 11 18 17 16 16 14 14 15 15 22 19 12 13 10 11 13 10 15 17 13 16 16 14 15 15 13 11 11 11 10 10 8 7 6 5 6 9 8 8 6 3 2 1 3 9 14 15 15 15 16 18 18 16 14 13 13 12
8 7 6 7 6 5 5 5 5 5 5 4 4 6 6 5 3 2 2 1 2 7 12 13 8 15 14 14 17 19 14 11 18 15 13 17 16 16 17 14 20 21 15 12 9 10 11 9 17 18 14 18 18 14 15 13 10 9 11 12 10 11 10 7 5 2 3 8 8 8 6 5 4 2 4 10 14 15 16 17 17 18 19 18 15 13 13 12
7 5 5 6 5 4 5 5 6 6 5 4 6 6 5 4 3 2 1 3 4 5 9 6 8 13 13 14 14 18 15 12 17 14 11 16 15 17 20 16 20 22 17 14 9 10 11 9 16 19 15 18 19 15 14 13 11 8 10 11 9 11 11 6 6 5 6 9 7 9 12 9 8 6 8 13 15 16 18 19 19 19 19 17 15 14 14 14
8 6 7 5 3 4 5 5 6 6 4 4 8 9 6 4 3 3 4 6 5 5 7 4 8 13 14 14 14 18 15 12 17 14 12 14 13 17 21 16 19 22 19 16 10 9 11 8 13 18 15 16 18 15 13 14 16 12 10 10 9 10 10 8 7 7 9 9 7 11 13 11 10 8 12 15 16 17 18 18 20 20 19 17 15 16 16 15
8 7 5 4 5 4 5 6 6 6 4 6 9 7 4 4 5 5 5 8 7 6 7 5 7 12 13 14 16 17 15 14 16 14 12 11 11 18 21 15 18 22 19 16 10 9 11 8 9 14 15 15 15 13 10 12 15 14 11 12 10 8 8 9 7 6 9 8 7 11 11 9 9 10 16 18 17 18 19 18 19 20 19 16 15 16 16 15
8 6 1 6 6 5 5 5 6 6 5 6 7 6 4 5 6 6 7 9 7 4 4 6 7 11 13 16 17 14 13 15 16 13 11 11 12 18 21 16 17 21 21 17 12 9 8 7 8 12 15 15 12 11 12 12 13 11 9 11 10 7 7 8 7 7 8 8 7 9 9 8 7 9 15 18 18 18 18 18 18 18 18 16 16 15 14 14
6 5 1 5 6 6 4 4 5 5 5 6 6 6 6 5 4 6 10 10 7 5 6 9 10 8 13 15 15 13 12 14 15 12 10 12 11 12 17 17 17 20 19 14 12 10 7 8 9 10 13 13 12 14 15 15 15 11 7 9 10 9 8 8 9 9 8 7 8 7 8 7 5 8 11 14 15 16 18 19 18 18 19 17 16 16 14 14
4 4 1 5 7 6 2 5 5 4 4 6 6 7 6 4 4 7 8 9 9 8 8 10 14 9 12 14 14 14 11 12 14 11 10 14 12 11 16 19 19 20 16 11 13 11 3 3 9 10 10 11 13 16 17 17 17 14 10 11 10 10 10 8 9 10 8 9 9 7 7 4 1 7 11 12 13 15 16 16 16 17 18 16 16 16 15 14
4 4 1 4 7 5 2 6 5 3 5 7 8 8 7 4 4 5 4 5 8 7 6 8 10 8 12 13 13 14 12 12 13 11 12 14 11 12 17 18 20 21 15 11 12 9 1 2 9 10 9 10 12 15 16 17 15 13 12 13 10 10 11 9 7 7 7 9 9 7 7 3 2 4 8 12 15 15 14 15 16 15 15 16 16 16 15 16
3 4 3 3 6 5 3 5 5 5 6 9 9 7 3 2 4 4 2 3 5 5 4 5 6 6 12 12 12 13 12 10 10 11 12 11 10 14 18 19 21 19 14 11 10 8 4 7 9 9 10 11 12 13 14 15 13 10 12 14 13 13 14 11 9 6 7 10 11 9 6 5 4 3 4 10 14 15 14 15 15 14 15 16 16 15 15 16
4 3 3 4 5 5 4 4 6 7 7 10 9 7 4 1 4 4 4 3 5 4 3 5 6 6 12 13 12 12 11 9 9 10 12 10 9 13 18 19 18 17 15 11 10 9 7 8 9 9 10 11 11 10 10 12 11 8 11 17 17 17 16 12 9 7 8 10 11 11 6 5 7 7 8 9 12 14 15 15 15 15 17 17 15 14 14 16
3 2 2 2 4 5 5 5 5 5 6 8 6 6 7 3 3 3 4 3 4 3 2 5 8 8 11 13 12 11 12 11 9 9 12 11 8 10 17 19 18 17 11 6 7 9 7 8 10 10 10 10 10 10 10 11 12 10 12 16 18 18 17 12 8 8 8 8 9 10 7 7 9 11 13 12 12 13 15 14 14 16 18 18 17 15 14 15
2 2 3 3 2 3 4 4 4 4 6 6 4 5 7 6 3 1 1 2 4 3 3 6 10 9 10 12 11 10 12 13 11 11 13 11 9 11 17 20 17 12 11 7 8 8 5 8 11 11 10 8 7 12 16 15 15 16 15 14 15 18 18 13 10 10 8 7 9 10 11 10 9 11 14 14 13 13 15 15 15 16 18 18 17 16 15 16
2 3 3 4 3 4 3 4 5 7 8 6 3 5 8 8 6 3 0 3 4 4 4 7 11 11 11 11 10 10 12 13 12 12 11 10 11 13 15 18 17 13 12 9 10 6 5 8 11 11 9 5 2 6 14 16 15 16 16 15 14 16 17 15 12 11 10 8 8 9 12 13 10 11 13 15 16 15 16 16 14 15 17 17 17 17 17 18
3 3 4 4 5 6 7 8 8 6 6 6 3 4 8 8 7 6 4 4 1 1 2 6 13 13 12 12 9 7 8 10 11 10 9 10 12 12 12 15 14 13 13 12 8 6 6 6 10 12 9 6 1 1 7 12 12 14 17 17 16 15 16 16 14 13 12 10 9 8 9 11 10 10 12 14 14 13 14 15 15 17 19 19 19 19 19 19
3 2 5 6 6 7 7 8 7 3 2 4 4 3 4 6 7 7 6 6 4 4 3 5 12 12 11 12 10 5 3 6 10 9 10 12 11 10 10 11 12 13 14 11 8 7 6 4 9 10 8 8 6 3 5 9 9 11 13 15 17 17 16 15 14 13 12 11 11 8 7 8 7 8 12 13 12 13 16 18 17 18 20 21 22 22 21 21
5 4 5 6 6 7 7 7 6 2 1 3 4 4 4 6 8 6 4 6 6 6 6 3 3 7 9 9 10 8 6 4 6 8 10 10 10 9 8 8 10 12 12 10 8 8 7 4 7 8 8 9 10 8 9 7 6 9 11 12 15 15 14 14 13 13 12 13 13 11 8 7 6 6 8 12 15 16 18 19 17 17 20 22 23 22 22 22
9 6 5 5 5 6 7 6 6 4 4 6 7 6 6 7 8 5 3 3 4 3 5 7 4 3 7 5 8 5 6 6 3 4 4 4 8 11 9 9 12 11 10 10 8 8 8 6 6 7 7 8 11 12 10 7 7 8 8 10 13 12 12 13 13 14 14 13 12 10 9 7 7 8 8 11 15 16 17 17 17 18 20 21 20 21 21 22
Wind_Direction
329 329 328 329 328 327 326 324 321 314 307 307 308 301 289 283 280 284 295 303 310 314 317 320 321 322 321 319 315 314 316 310 302 287 265 255 252 254 253 244 235 219 205 215 244 246 216 211 214 206 212 212 213 226 207 204 218 216 223 230 232 234 239 242 245 243 251 248 129 133 196 221 261 222 201 205 222 238 178 192 189 95 75 87 111 135 145 143
325 326 326 326 326 326 326 324 323 319 311 304 302 303 299 293 285 280 281 288 300 309 313 316 319 319 318 314 313 318 316 305 291 280 266 258 255 253 248 242 238 213 203 225 232 226 218 210 206 203 210 212 205 214 206 196 210 217 217 226 232 237 241 246 259 260 248 263 115 126 157 209 254 280 225 208 207 215 193 197 174 105 92 106 121 135 142 140
320 320 321 322 322 322 322 323 323 322 319 310 301 298 298 299 294 287 279 276 289 303 307 311 316 315 314 311 316 323 315 301 285 273 258 243 241 244 244 239 232 215 209 231 235 229 229 218 206 203 211 219 205 205 206 191 199 218 225 230 231 239 248 253 287 298 297 295 355 143 222 236 246 253 230 227 210 203 203 192 160 133 125 129 132 139 145 145
315 315 315 316 318 319 319 319 319 319 320 315 307 298 296 296 293 293 285 275 277 293 304 308 313 315 313 312 319 323 308 294 283 213 114 181 204 223 233 231 223 211 213 235 250 244 239 235 217 207 213 222 209 205 209 194 196 214 224 239 237 240 252 219 220 259 268 287 272 221 263 253 255 246 234 237 213 199 206 187 169 161 146 140 140 147 153 150
315 312 311 312 312 314 314 315 314 314 316 315 313 304 297 295 293 292 286 279 271 279 299 303 311 312 309 312 320 318 297 284 67 97 106 144 129 89 224 223 219 211 215 229 241 244 239 238 226 212 216 224 212 207 212 204 205 220 225 238 245 251 265 227 203 228 205 223 244 231 252 271 309 245 227 236 222 202 231 189 179 169 147 145 147 151 157 155
318 313 309 308 307 309 310 310 311 311 311 312 313 308 300 294 293 291 288 285 272 268 290 295 304 304 306 316 312 298 276 271 67 99 124 137 103 29 10 245 225 208 213 223 227 233 230 223 219 212 214 223 219 212 211 207 206 226 230 230 243 253 261 246 191 169 201 217 222 222 258 292 273 248 218 233 218 75 348 185 158 145 135 143 148 154 162 160
319 315 311 308 306 304 305 306 307 308 308 309 310 311 305 296 292 291 288 287 274 265 281 288 294 301 313 319 299 273 252 267 282 100 236 214 121 351 339 297 234 203 207 216 218 222 220 214 214 213 214 220 223 218 213 212 209 223 235 225 233 238 229 232 178 161 210 220 221 229 265 247 246 248 208 220 159 104 95 90 107 127 135 147 148 154 163 158
321 319 313 310 308 304 303 302 303 304 305 306 308 310 309 301 294 291 287 284 276 262 271 287 292 304 317 315 297 268 244 257 259 287 348 241 285 320 308 277 211 200 207 211 213 216 215 215 214 213 218 218 223 221 212 216 216 218 236 235 227 224 218 221 212 205 210 214 220 228 244 232 234 243 205 201 116 124 144 110 120 137 142 150 147 155 163 156
321 320 317 313 309 305 302 301 300 300 301 302 305 308 308 305 299 294 288 282 277 264 265 276 283 299 307 296 289 279 257 255 261 316 343 287 302 300 289 265 199 199 210 211 213 215 214 216 215 216 225 223 225 226 214 217 221 213 227 238 227 217 224 224 222 221 211 213 215 218 232 227 223 225 150 46 88 137 138 125 136 140 142 148 148 159 160 151
319 318 316 315 311 307 303 300 298 296 297 297 300 305 306 305 302 299 292 282 274 266 260 260 273 288 290 277 267 267 260 153 248 341 338 313 305 290 274 258 206 205 212 211 213 215 217 218 216 221 233 233 231 228 218 218 221 209 221 232 227 218 222 220 220 216 209 213 209 217 226 218 215 216 174 91 32 162 150 137 135 139 146 149 150 158 154 149
320 317 314 315 314 310 305 301 299 295 293 294 296 301 303 304 302 300 295 285 274 265 254 250 266 276 278 275 260 248 219 20 313 311 313 311 298 279 262 251 227 218 216 213 214 214 218 222 220 222 228 237 239 230 222 220 218 213 223 231 224 219 223 215 217 210 206 211 206 221 228 210 208 214 171 124 180 210 156 137 136 143 147 145 148 150 143 141
320 318 316 315 314 312 309 304 300 296 292 290 293 296 300 300 298 298 294 288 278 263 251 244 254 271 276 273 255 252 268 287 297 298 296 298 285 271 261 252 245 234 227 220 216 214 217 223 224 225 219 222 233 228 224 218 220 224 218 231 219 215 228 218 214 208 206 208 197 212 228 212 198 142 43 34 290 220 152 144 150 148 147 140 136 130 120 123
321 319 318 315 314 313 311 306 300 297 292 288 289 292 296 295 293 296 294 288 281 266 252 241 249 268 272 267 261 263 271 279 285 287 284 283 277 266 255 247 242 240 238 232 222 214 215 221 226 230 225 223 224 223 244 215 216 225 210 229 222 209 223 216 213 205 204 206 188 202 225 202 151 77 34 8 297 236 162 155 151 137 138 126 111 103 95 85
321 320 319 317 315 313 311 308 303 297 292 287 285 287 289 289 290 293 292 287 281 270 252 240 249 265 266 265 270 268 265 269 274 274 273 270 264 257 245 236 234 234 235 236 231 218 213 218 226 235 231 235 232 206 229 213 205 219 209 220 228 219 217 204 204 203 201 200 187 205 229 188 119 112 177 150 221 251 164 146 144 139 135 121 114 111 98 85
321 321 321 319 317 315 313 310 307 300 293 288 283 283 282 283 288 289 288 282 275 267 253 243 246 260 269 269 274 270 259 256 259 260 258 253 248 244 233 223 223 226 225 226 230 223 212 213 220 234 224 225 240 224 211 209 198 210 212 214 219 230 219 191 192 200 200 190 189 212 224 138 132 153 173 157 155 220 195 158 146 141 125 116 124 122 122 132
321 320 320 319 318 316 314 310 307 302 295 288 281 277 277 281 285 285 281 276 273 262 243 242 244 248 264 274 271 261 241 235 242 247 239 234 236 236 227 216 212 215 217 214 222 225 211 207 212 228 223 211 227 230 207 206 202 203 213 217 206 220 227 187 181 193 200 191 188 214 213 119 161 165 153 163 145 136 199 204 141 128 114 126 141 132 137 145
321 320 319 318 317 316 315 312 306 302 295 287 278 273 273 278 281 280 276 268 267 251 227 235 250 247 254 274 275 253 229 223 225 229 224 224 228 234 231 213 202 203 205 203 214 219 201 200 206 216 226 213 209 214 208 205 202 196 207 220 206 212 225 183 172 186 198 201 190 209 221 137 155 161 146 159 144 136 152 184 169 149 145 164 162 146 147 146
322 320 319 317 316 315 315 312 306 302 295 284 275 269 267 269 272 273 265 247 240 239 232 236 246 250 247 248 246 247 251 226 229 243 240 234 226 229 231 217 198 192 191 194 207 208 190 194 204 206 214 212 207 207 211 204 199 197 196 211 208 207 217 186 172 184 192 201 198 199 198 121 133 143 133 128 138 151 155 180 194 168 165 169 160 154 153 149
321 319 318 316 314 315 315 312 305 299 292 281 271 267 267 267 263 256 243 225 209 209 227 212 197 219 289 238 218 231 272 274 256 256 244 234 222 217 224 222 201 189 188 187 192 195 189 190 200 207 206 205 205 205 214 211 202 202 193 206 211 200 210 194 175 183 187 197 204 188 152 126 137 140 141 139 155 168 158 186 217 182 168 160 152 153 145 136
320 318 315 313 311 312 313 311 302 294 284 274 267 264 263 254 247 242 227 217 213 218 232 207 190 220 267 289 224 201 272 259 242 241 230 222 209 202 213 215 200 193 194 188 184 188 191 195 202 207 205 203 204 206 216 220 213 206 194 205 215 203 207 195 170 175 183 199 204 177 141 139 147 152 167 172 177 175 164 193 212 179 162 154 148 139 118 102
318 318 314 311 309 308 311 309 299 289 276 268 265 261 254 250 265 280 226 225 226 226 236 230 209 224 249 262 256 252 305 269 239 233 221 210 198 193 201 201 197 194 195 191 183 185 194 206 207 205 206 203 203 207 213 221 226 218 202 201 213 212 195 168 154 169 184 203 198 166 148 146 154 169 182 182 188 187 176 192 203 175 161 157 145 130 114 105
315 317 314 309 305 305 308 305 296 288 274 263 256 250 252 267 292 327 289 259 242 228 234 236 229 231 240 253 265 277 275 259 251 241 216 206 200 193 189 192 199 193 190 192 184 186 201 212 207 200 205 205 202 206 211 217 223 226 213 199 209 211 176 150 161 175 188 206 183 162 158 150 155 170 183 188 193 191 182 191 196 178 168 157 140 130 129 124
311 314 314 307 301 303 306 304 299 287 265 251 248 248 254 268 290 305 278 276 266 238 229 230 231 232 234 244 254 255 248 241 249 234 207 207 205 197 193 191 199 194 189 194 189 190 200 207 202 196 201 207 202 202 208 211 211 226 217 197 210 201 170 160 174 183 193 197 170 164 156 143 155 177 189 194 190 175 182 196 194 180 167 150 139 139 142 135
311 313 312 305 298 299 304 305 297 276 255 246 246 250 254 261 276 282 268 272 271 250 231 225 227 231 229 231 237 241 237 231 244 229 198 200 203 201 201 195 196 198 194 195 195 199 203 197 197 196 200 206 201 197 204 200 196 220 220 209 209 182 168 171 171 184 193 183 175 170 153 149 169 180 179 180 178 173 185 192 186 176 162 152 149 150 145 139
309 312 312 305 293 294 304 303 286 263 248 246 246 248 246 243 251 261 263 269 261 245 230 221 219 229 227 223 228 235 231 224 239 239 200 195 201 199 201 200 200 201 196 196 197 201 204 193 193 199 198 201 200 196 200 194 191 212 219 223 207 166 178 188 170 180 192 185 183 177 174 175 174 184 176 163 172 181 185 187 184 175 166 163 160 153 144 139
312 312 310 298 288 296 304 294 278 265 244 244 253 257 242 211 217 253 246 256 265 237 206 197 195 206 208 211 214 218 230 226 225 233 216 201 205 206 201 196 204 208 196 193 198 203 203 191 191 199 194 196 203 196 191 191 200 206 203 229 227 180 191 193 175 183 195 186 183 189 204 180 163 198 194 179 185 183 183 189 188 181 171 167 159 151 149 144
318 315 307 293 292 297 294 278 286 288 263 274 314 306 277 162 156 218 232 246 262 221 184 175 172 174 182 194 193 192 216 208 197 218 220 206 207 214 213 196 196 209 193 187 200 197 197 191 190 196 193 196 203 192 186 191 212 207 175 210 248 198 191 185 179 192 199 180 179 203 221 203 167 196 195 190 193 187 184 190 191 185 175 165 157 152 151 146
319 315 303 295 295 289 284 283 289 297 311 347 342 314 50 129 149 173 233 243 206 163 169 176 167 162 180 187 183 194 219 181 173 198 204 204 208 215 222 204 196 202 192 192 196 182 195 199 190 189 190 192 196 191 186 193 219 211 164 184 228 194 181 179 184 200 201 191 190 204 219 223 184 179 187 192 195 192 187 187 190 186 177 166 158 153 150 147
318 311 301 298 297 287 282 275 274 301 337 349 335 318 105 125 159 196 233 240 169 131 148 169 165 175 189 180 180 202 229 214 179 175 183 203 214 218 234 210 199 201 192 193 198 184 192 193 180 181 188 189 195 194 183 191 215 194 159 178 199 184 185 190 198 207 201 203 208 202 209 224 200 171 181 189 197 198 189 187 188 181 175 168 160 156 151 148
316 306 307 302 297 291 278 262 262 298 315 305 136 129 123 129 171 213 220 242 197 169 155 159 173 191 184 175 185 200 219 222 173 154 173 197 207 217 252 228 203 198 184 192 207 186 159 162 174 190 200 196 196 194 182 192 204 170 161 184 188 191 199 201 210 214 207 211 213 206 206 218 218 182 175 181 198 199 190 190 185 178 176 170 164 160 153 150
315 305 310 301 294 296 282 268 282 325 269 202 132 134 147 163 202 226 213 225 311 222 171 173 184 192 181 179 186 192 210 213 164 154 173 187 193 206 235 218 196 194 181 190 203 175 154 174 187 196 205 200 194 189 182 193 195 167 176 191 183 191 199 202 212 212 216 218 210 210 209 216 226 196 171 177 195 202 199 192 183 180 176 165 164 162 155 151
316 306 305 291 282 283 272 264 236 166 164 154 142 145 201 220 218 240 252 303 316 326 298 217 189 184 181 183 182 181 199 199 166 166 173 179 186 194 208 195 181 189 181 183 194 177 172 189 186 191 203 200 192 183 176 191 191 176 188 191 181 187 189 200 207 206 218 219 209 210 206 215 232 199 177 183 193 203 200 188 183 182 170 161 165 159 152 150
312 302 296 279 266 268 268 262 230 188 169 167 171 179 240 262 249 242 277 316 10 340 311 272 201 181 181 183 176 178 193 185 171 176 174 179 186 190 206 197 183 190 182 181 191 179 175 188 185 189 194 197 201 187 172 189 189 183 192 189 185 187 185 197 202 201 216 215 210 211 202 210 233 199 180 182 187 195 192 180 179 175 163 163 164 153 149 152
308 289 278 265 250 252 260 251 209 190 182 182 199 204 234 267 283 284 270 291 342 304 304 288 204 180 181 184 171 174 190 174 169 176 173 180 188 187 202 197 189 194 184 183 191 179 179 185 186 188 181 192 204 191 179 189 186 189 200 198 200 199 188 195 201 199 208 205 209 215 202 203 221 186 163 173 176 186 185 171 167 166 161 162 157 149 152 158
300 274 259 251 243 234 215 198 179 202 219 207 220 228 242 264 274 297 296 101 316 294 307 306 226 181 180 180 166 174 195 173 170 179 175 181 188 184 195 195 190 195 188 181 183 182 191 186 180 183 178 185 196 193 191 192 186 190 206 210 209 205 188 189 217 228 216 205 201 206 192 162 198 97 138 175 176 176 169 157 159 162 162 162 156 154 159 162
276 263 245 240 244 223 203 208 192 205 237 241 241 237 247 266 266 301 333 116 273 293 312 307 229 182 177 168 163 180 197 177 173 181 176 183 188 184 193 192 186 197 201 183 170 181 194 175 163 171 178 185 193 200 196 194 188 184 205 214 207 209 204 189 209 254 233 216 196 189 187 137 140 190 187 190 181 168 160 159 163 158 156 161 160 159 163 161
275 266 250 239 228 202 202 213 205 212 233 243 249 252 263 273 251 253 246 225 255 288 302 287 189 184 175 158 166 181 182 171 176 182 176 183 189 186 191 191 186 198 202 186 180 193 193 158 155 172 184 184 192 207 202 200 204 191 198 206 198 215 225 204 197 194 205 219 190 189 206 187 176 186 182 191 185 168 162 163 164 158 157 163 161 163 168 161
290 281 270 239 178 185 203 204 208 222 238 242 248 256 269 268 236 234 239 248 265 267 271 256 184 188 172 156 167 174 173 173 177 181 177 181 188 185 189 191 187 195 198 189 186 196 193 163 160 181 184 174 186 207 203 199 214 215 199 198 198 211 214 198 201 197 200 216 196 196 211 209 201 177 168 188 188 172 167 165 166 167 168 170 165 168 171 162
281 280 264 181 154 173 190 197 213 229 239 248 255 257 260 262 260 266 257 259 271 261 265 274 211 190 171 163 162 166 179 179 174 179 179 183 186 182 190 193 183 191 197 188 182 195 195 171 164 180 176 168 181 203 200 188 208 221 207 202 209 213 212 205 200 197 202 210 205 201 207 216 214 176 168 186 188 178 176 171 172 173 172 174 170 169 170 163
275 285 229 140 149 159 169 207 231 238 240 248 266 279 288 283 279 281 266 260 269 264 280 286 231 183 163 164 160 167 183 174 174 182 176 184 181 177 190 189 177 189 193 184 185 197 190 168 173 180 176 177 183 197 200 185 192 211 209 203 201 192 212 216 202 205 211 204 201 205 208 217 211 170 171 185 186 184 184 177 176 176 172 173 168 163 164 162
284 290 191 144 150 150 161 244 242 236 246 252 265 277 285 288 277 268 260 252 256 254 256 274 263 201 160 161 162 169 175 168 179 182 168 182 178 169 186 184 181 191 187 179 187 188 179 173 176 176 178 187 187 186 197 197 192 196 203 206 197 184 197 209 205 210 216 209 207 211 213 216 195 159 167 182 185 187 188 183 180 176 174 173 164 160 162 163
275 284 183 157 162 154 188 271 249 232 250 264 279 283 282 277 257 260 253 232 231 239 236 253 262 227 164 159 164 169 172 170 178 179 167 170 166 169 178 175 185 191 178 179 186 175 169 183 172 174 180 185 183 182 197 209 201 193 204 213 201 192 202 209 206 204 212 222 221 217 215 218 136 147 166 182 187 188 190 185 179 176 173 166 158 160 165 163
261 289 279 165 170 168 248 277 267 255 260 281 297 292 278 260 254 264 249 211 215 225 225 232 241 205 161 161 167 169 172 171 172 177 168 159 165 180 170 170 190 191 178 191 185 156 83 221 173 171 172 176 182 183 195 213 209 194 206 219 211 199 205 218 222 205 209 224 221 212 203 180 81 126 173 192 190 187 185 177 174 174 165 157 156 159 162 158
285 284 267 192 179 190 248 280 296 302 301 309 317 316 297 237 258 284 270 219 221 223 216 219 227 185 153 159 170 166 164 167 172 173 162 159 176 176 167 177 194 189 181 195 181 152 189 209 179 169 171 177 184 181 187 206 212 202 203 212 218 210 201 212 233 222 212 223 225 224 205 162 129 126 183 196 182 174 171 167 172 172 160 158 161 160 158 155
301 277 239 206 196 216 249 274 296 301 311 318 317 329 347 199 227 288 302 255 242 245 209 198 209 172 149 161 170 162 160 168 172 167 162 164 170 167 170 180 187 185 185 190 176 167 197 208 186 177 182 182 182 183 189 195 199 209 207 203 210 216 206 204 222 225 215 216 224 235 217 140 138 160 178 183 169 164 165 167 176 174 158 156 161 161 160 157
307 293 274 233 205 223 250 259 269 275 297 316 320 339 1 47 163 267 302 278 248 248 209 191 194 172 161 171 167 153 160 170 171 170 168 162 155 168 176 178 183 183 166 138 159 178 205 213 196 192 196 189 185 188 191 191 192 202 210 202 203 214 215 208 211 224 223 211 220 232 206 144 146 169 178 174 166 167 167 164 168 167 159 157 159 159 159 160
302 318 330 329 263 240 250 247 253 275 295 314 329 333 354 33 74 148 236 265 279 282 243 202 192 178 166 168 163 156 163 168 171 174 170 159 155 168 174 179 184 163 117 116 179 192 210 204 201 213 205 189 205 199 187 189 196 198 206 208 202 207 215 213 210 217 217 210 218 217 197 176 166 172 178 176 172 174 171 165 163 164 163 159 155 156 158 159
341 325 345 350 306 295 316 298 289 304 308 306 304 326 357 28 42 46 69 267 272 265 236 195 182 173 159 158 166 166 161 162 168 166 159 155 158 162 170 181 179 146 132 169 192 198 216 194 200 221 200 150 318 227 185 184 196 198 203 209 206 205 211 213 214 217 214 216 227 217 205 203 190 175 178 179 179 180 173 165 159 159 160 155 153 159 161 160
347 326 337 336 307 296 304 300 293 300 317 324 337 350 356 14 33 39 9 331 302 275 271 199 179 170 159 160 166 160 153 157 158 153 148 150 156 158 165 176 173 157 166 184 185 200 225 194 192 212 200 164 23 322 182 188 197 199 200 205 206 207 212 213 214 218 219 226 240 240 224 219 202 183 181 178 178 177 165 159 158 162 166 163 161 165 166 165
353 326 321 321 314 305 306 309 302 276 319 344 358 1 343 3 33 42 14 1 29 34 351 199 177 168 164 162 146 108 86 138 145 143 141 145 151 159 164 171 169 166 177 186 180 194 219 194 184 201 206 184 164 146 204 210 211 210 207 204 203 206 212 214 214 217 219 223 233 236 226 222 213 200 188 171 162 159 157 162 166 169 173 171 168 171 172 171
329 294 304 315 316 324 333 331 318 307 52 3 348 353 8 30 38 40 22 3 6 15 6 342 180 174 182 160 117 78 27 53 118 123 133 147 156 157 161 168 165 164 176 184 177 185 207 200 176 197 216 197 175 183 205 209 219 227 223 215 209 207 209 209 211 216 215 216 222 222 215 209 198 200 189 160 152 157 160 167 172 174 178 177 174 176 177 174
333 308 309 309 298 324 343 340 337 1 17 356 350 360 17 35 44 44 25 335 319 353 10 349 334 199 182 129 82 51 360 358 23 79 118 160 155 151 164 171 166 167 176 178 174 183 199 200 178 191 216 208 191 194 200 201 214 225 224 219 217 216 215 212 211 212 211 215 220 216 214 210 186 185 183 162 162 170 171 173 177 178 180 180 181 182 180 175